Regional Weather Roundup
Issued by NWS

Home | Current Version | Previous Version | Graphics & Text | Print | Product List | Glossary On
Versions: 1 2 3 4 5 6 7 8 9 10 11 12 13 14 15 16 17 18 19 20 21 22 23 24 25 26 27 28 29 30 31 32 33 34 35 36 37 38 39 40 41 42 43 44 45 46 47 48 49 50
000
ASUS45 KTFX 171310
RWRMT
MONTANA REGIONAL WEATHER ROUNDUP
NATIONAL WEATHER SERVICE GREAT FALLS MT
600 AM MST TUE JAN 17 2017

NOTE: "FAIR" INDICATES FEW OR NO CLOUDS BELOW 12000 FEET WITH NO
SIGNIFICANT WEATHER AND/OR OBSTRUCTIONS TO VISIBILITY.

MTZ001>007-043-171400-
WEST OF THE DIVIDE

CITY           SKY/WX    TMP DP  RH WIND       PRES   REMARKS
KALISPELL      FOG       12   9  87 CALM      30.08F VSB 1/4
MISSOULA       PTCLDY    -3  -5  90 CALM      30.16F
BUTTE          CLOUDY     0  -5  79 N3        30.04F
MULLAN PASS    CLOUDY    24  15  68 S8        29.93F WCI  15
ANACONDA         N/A     25   7  46 SE13G22   30.01S WCI  13
DEER LODGE       N/A      1  -2  85 CALM      30.07S
EUREKA           N/A     21  16  79 S8        30.00F WCI  12
HAMILTON         N/A      0  -4  85 CALM      30.11S
RONAN            N/A     -1  -7  76 MISG      30.07F
$$

MTZ008-052>055-171400-
SOUTHWEST MONTANA

CITY           SKY/WX    TMP DP  RH WIND       PRES   REMARKS
BOZEMAN        CLOUDY     3  -2  79 S3        30.06F
DILLON         CLOUDY    20   3  48 S5        30.07S
W YELLOWSTONE  CLOUDY   -15 -18  84 CALM      30.18S FOG
ENNIS          CLEAR     19  12  73 S14G21    30.09F WCI   6
$$

MTZ009-010-012-014-046-048-049-054-171400-
EAST SLOPES AND CENTRAL MONTANA

CITY           SKY/WX    TMP DP  RH WIND       PRES   REMARKS
CUT BANK       CLOUDY    40  20  44 W33       29.76F
GREAT FALLS    CLOUDY    33  17  51 SW24      29.82F WCI  20
MALMSTROM AFB  CLOUDY    36  20  52 SW29      29.83S WCI  23
HELENA         CLOUDY     6   0  76 W5        30.08R
AUGUSTA          N/A     32  15  50 S13       29.85R WCI  22
BOWMANS CRNR     N/A     26  12  55 S30       29.87S WCI   9
CHOTEAU          N/A     39  18  41 SW13      29.84R WCI  32
FAIRFIELD        N/A     30  16  57 S23       29.83S WCI  16
POWER            N/A     32  18  57 SW22      29.81F WCI  19
RAYNESFORD       N/A     42  19  38 SW6       29.84R
ULM              N/A     32  18  56 MISG      29.86F
$$

MTZ011-013-016-021-045-047-050-051-171400-
NORTH CENTRAL MONTANA

CITY           SKY/WX    TMP DP  RH WIND       PRES   REMARKS
HAVRE          CLOUDY    35  24  64 SW26      29.74S WCI  22
LEWISTOWN      CLOUDY    27  16  63 E3        29.82F
N BAR RANCH      N/A     37  21  52 CALM      29.83S
CHINOOK          N/A     41  19  42 SW18G25   29.70F
DENTON           N/A     31  20  65 S16G30    29.76F WCI  20
FORT BENTON      N/A     41  19  42 MISG      29.81S
GEYSER           N/A     41  22  46 SW12      29.79F
GRASS RANGE      N/A     40  23  50 W17       29.77S
JUDITH GAP     MOCLDY    33  17  51 SW14      29.84S WCI  23
ROY              N/A     41  26  54 MISG      29.76F
STANFORD         N/A     38  23  54 W9        29.81S WCI  31
WINIFRED         N/A     40  23  50 SW12      29.78S
$$

MTZ017>020-022>027-061-062-171400-
NORTHEAST MONTANA

CITY           SKY/WX    TMP DP  RH WIND       PRES   REMARKS
GLASGOW        CLOUDY    14   8  77 S10       29.75F WCI   1
JORDAN           N/A     25  16  68 W9        29.79F WCI  15
SIDNEY         CLOUDY    11   6  81 S22       29.82F WCI  -8
WOLF POINT     CLOUDY     1  -5  75 CALM      29.80F
PLENTYWOOD       N/A     10   7  85 SE9       29.74F WCI  -2
POPLAR           N/A     10   7  85 CALM      29.80F
$$

MTZ028>42-056>058-171400-
SOUTHCENTRAL AND SOUTHEAST MONTANA

CITY           SKY/WX    TMP DP  RH WIND       PRES   REMARKS
BILLINGS       CLOUDY    26  11  52 SW25G32   29.88S WCI  11
MILES CITY     CLOUDY     9   2  73 S7        29.89S WCI  -2
BIG TIMBER     CLEAR     36  16  44 W28G38    29.91R WCI  23
FORSYTH          N/A     12   7  79 CALM      29.88F
HARLOWTON      MOCLDY    37  14  38 NW32G41   29.87F WCI  24
LAUREL           N/A     26  10  50 S17       29.90F WCI  13
$$

REGIONAL REPORTS...DAKOTAS

CITY           SKY/WX    TMP DP  RH WIND       PRES   REMARKS
WILLISTON      CLOUDY    10   5  80 S5        29.82F
MINOT          CLOUDY    19  13  77 S9        29.83F WCI   8
DICKINSON      CLOUDY    21   9  59 SW15      29.85F WCI   8
BEACH            N/A     18   9  68 S15       29.87F WCI   3
CROSBY           N/A     14   9  79 S28       29.75F WCI  -6
TIOGA            N/A     16  10  79 S15       29.80F WCI   1
WATFORD CITY     N/A      7   3  85 W3        29.83F
BISMARCK       CLOUDY     5   1  83 CALM      29.95F
GRAND FORKS    CLOUDY     1  -3  83 S7        29.94F WCI -12
FARGO          CLOUDY     5   1  83 S3        29.98F
BUFFALO SD       N/A     21   9  59 SW10      29.84F WCI  10
RAPID CITY     CLOUDY    11   7  84 CALM      29.96F
$$

REGIONAL REPORTS...WYOMING/IDAHO/WASHINGTON

CITY           SKY/WX    TMP DP  RH WIND       PRES   REMARKS
GILLETTE       CLOUDY    17   6  62 CALM      29.92F
SHERIDAN       CLOUDY     8   0  69 VRB5      29.90S
BUFFALO WY     CLOUDY    29   2  31 SW7       29.91F WCI  22
CODY           CLOUDY    14   4  64 CALM      29.97S
YELLOWSTONE LA   N/A    -12 -16  82 CALM      30.15S
IDAHO FALLS    CLOUDY    -6  -9  86 NE5       30.26F
SALMON         CLOUDY   -17 -18  91 CALM      30.38S
BOISE          CLEAR      1  -2  87 CALM      30.35F FOG
SPOKANE        MOCLDY    12  10  92 CALM      30.05F
$$

REGIONAL REPORTS...ALBERTA

CITY           SKY/WX    TMP DP  RH WIND       PRES   REMARKS
EDMONTON       CLEAR     36  23  60 W9        29.35S WCI  29
CALGARY        PTCLDY    45  28  53 SW10      29.52R
LETHBRIDGE     CLOUDY    41  28  60 S13G20    29.71R
MEDICINE HAT   CLOUDY    39  30  70 SW25      29.56F WCI  28
WATERTON GATE    N/A     37  21  52 SW17G25     N/A  WCI  28
CARDSTON         N/A     41  27  56 SW13G20     N/A
MILK RIVER       N/A     41  30  65 W17         N/A
$$

REGIONAL REPORTS...SASKATCHEWAN

CITY           SKY/WX    TMP DP  RH WIND       PRES   REMARKS
SWIFT CURRENT  CLEAR     32  23  69 SW20G25   29.54R WCI  20
REGINA         MOCLDY    21  14  73 SE13      29.60F WCI   9
SASKATOON      MOCLDY    23  18  80 S5        29.45F
CYPRESS HILLS    N/A     46  28  49 W26G44      N/A
VAL MARIE        N/A     14  10  85 SW13        N/A  WCI   0
ROCKGLEN         N/A     27  18  69 SW20G26     N/A  WCI  13
ASSINIBOIA       N/A     37  30  75 S7          N/A
$$



USA.gov is the U.S. government's official web portal to all federal, state and local government web resources and services.